{"data":{"norad_id":51784,"intl_designator":"2022-017S","name":"STARLINK-3632","alt_names":[],"object_type":"PAYLOAD","status":"ACTIVE","operator":null,"country":"US","launch_date":"2022-02-25","launch_site_code":"AFWTR","launch_vehicle":null,"mission":null,"orbit_class":"UNKNOWN","rcs_meters":null,"size_class":null,"mass_kg":null,"dimensions":null,"purposes":["comms"],"wikipedia_slug":null,"has_3d_model":false,"image_url":null,"decayed_at":null,"tle_current":{"epoch":"2026-09-20T04:14:13.753248Z","epoch_age_seconds":79644,"freshness":"FRESH","line1":"1 51784U 22017S   26263.17654807  .00023193  00000+0  69745-3 0  9995","line2":"2 51784  53.1609 179.5728 0002101  74.1371 285.9863 15.34308567251862","mean_motion":15.34308567,"eccentricity":0.0002101,"inclination_deg":53.1609,"raan_deg":179.5728,"arg_perigee_deg":74.1371,"mean_anomaly_deg":285.9863,"bstar":0.00069745,"rev_number":25186,"period_min":93.853350686531,"perigee_km":461.53769421354,"apogee_km":464.41232948092,"semimajor_km":6841.1120118472,"source":"CELESTRAK","updated_at":"2026-09-20T09:00:39.939198Z"}}}